Theta_e
304 304 304 304 304 304 304 304 304 304 304 304 305 305 306 307 307 306 304 305 307 309 310 310 312 313 314 315 314 314 314 314 314 314 315 315 315 317 318 318 319 319 319 319 319 318 317 317 318 320 324 327 327 328 329 328 328 330 328 326 329 330 327 322 320 324 327 329 329 329 329 328 326 325 326 325 323 321 320 324 329 324 319 322 321 318 327
304 304 304 304 304 304 304 304 304 304 304 304 304 305 306 306 306 306 305 307 309 309 310 311 311 312 313 312 312 312 313 312 313 313 313 314 315 315 316 317 318 319 319 319 320 319 317 317 318 319 321 323 324 326 328 327 328 329 328 328 328 326 326 323 321 322 323 325 327 326 325 326 326 326 326 325 326 325 322 324 329 325 321 323 322 320 329
303 303 303 303 304 304 304 304 304 304 304 304 304 305 305 306 306 307 307 308 309 309 310 310 310 311 310 310 310 311 312 313 313 313 314 315 316 315 316 317 318 319 319 320 321 319 318 318 318 319 320 320 321 323 325 326 327 328 332 334 328 326 328 325 320 319 319 320 322 322 323 324 325 327 326 326 325 324 322 320 320 324 328 326 320 323 335
302 303 303 303 303 303 304 304 304 304 303 304 304 304 305 305 306 307 307 308 308 309 310 310 309 310 310 311 312 312 312 313 313 313 314 315 316 315 315 316 317 318 318 318 319 321 321 320 320 321 320 320 321 322 322 324 324 329 340 341 330 328 331 328 323 322 322 323 328 331 329 324 322 324 326 326 326 325 324 319 316 323 331 328 326 328 332
302 303 302 303 303 303 303 304 304 304 304 304 304 304 305 305 306 306 307 308 308 308 309 309 309 310 310 310 311 311 311 312 312 313 314 314 314 313 314 315 315 315 315 316 318 319 320 320 321 321 321 320 321 320 320 322 325 331 340 341 334 330 328 328 328 326 326 331 334 334 332 326 323 324 325 326 328 325 323 320 318 323 323 322 334 341 329
302 303 303 303 303 303 303 304 304 304 304 304 304 304 305 305 306 306 306 306 307 307 308 309 308 308 309 309 309 309 310 311 312 313 313 312 313 313 313 313 313 313 313 314 317 318 318 319 318 318 318 317 318 319 321 322 324 327 330 334 338 336 329 328 328 326 327 330 331 330 331 330 327 327 326 326 327 325 322 322 324 327 323 320 332 346 341
303 303 303 303 303 303 303 303 303 304 304 304 304 304 304 305 305 306 306 306 307 307 308 308 308 308 309 309 309 309 309 310 311 311 311 311 311 312 312 312 311 312 312 314 316 316 318 318 317 316 316 316 317 318 319 321 322 322 323 328 335 337 335 334 328 325 326 327 328 328 328 328 327 327 327 326 327 326 325 325 326 327 328 327 330 340 346
303 303 303 303 303 303 303 303 303 304 304 304 304 304 304 305 305 305 306 306 307 307 307 308 308 308 308 309 309 308 309 309 310 310 310 310 310 310 311 311 311 312 312 313 314 315 315 315 314 315 315 315 317 318 319 320 321 321 321 324 329 331 335 337 331 326 325 326 327 327 326 327 326 326 329 327 327 326 325 326 327 326 329 330 331 333 335
303 303 303 303 303 303 303 303 303 304 304 304 304 304 304 304 305 305 305 305 306 306 307 307 307 307 308 308 308 308 309 309 309 310 310 310 310 310 309 310 311 312 312 312 313 313 313 313 313 313 314 315 316 317 318 319 319 321 323 323 326 329 332 334 331 326 325 326 327 327 326 327 324 323 327 327 325 326 325 326 327 326 328 330 331 331 334
303 303 303 303 303 303 303 303 303 304 304 304 304 304 304 304 305 304 304 305 306 306 306 307 307 307 308 308 308 308 308 309 309 309 310 310 310 310 310 311 312 312 312 312 313 312 311 312 312 312 314 315 317 317 318 319 319 321 323 323 326 329 329 329 330 326 325 327 328 327 325 323 320 323 327 328 328 327 326 328 329 327 327 327 327 333 343
303 303 303 303 303 303 303 303 303 304 304 304 304 304 304 304 304 304 304 305 306 306 306 306 306 307 308 308 308 307 307 308 308 309 309 310 310 310 310 311 312 313 312 311 312 312 311 312 313 314 315 316 317 318 318 320 321 322 323 325 326 328 330 332 331 326 324 327 328 328 326 320 321 326 329 330 331 330 328 329 329 329 328 326 328 336 344
303 303 303 303 303 303 303 303 303 304 304 304 304 304 304 304 304 304 304 305 305 305 305 306 306 307 307 307 307 307 307 307 308 309 309 309 309 310 310 310 311 312 312 311 312 312 312 313 314 315 317 317 318 319 319 320 321 321 323 325 326 329 332 333 331 328 327 329 328 326 324 325 328 332 333 331 331 332 332 332 331 331 331 329 330 332 335
303 303 303 303 303 303 303 303 303 304 304 303 303 304 304 304 304 304 304 304 305 305 305 306 306 307 307 307 307 307 308 308 309 309 309 309 309 310 310 310 310 311 311 310 311 312 312 314 316 316 317 318 319 319 318 319 320 320 323 324 326 331 334 333 331 328 326 327 326 325 327 332 334 335 334 334 336 335 333 334 336 336 335 337 339 339 342
304 303 303 303 303 303 304 304 304 304 304 303 304 304 304 304 304 304 304 305 305 305 305 305 306 306 307 307 307 307 308 308 309 309 310 309 309 310 310 311 311 311 310 311 313 314 314 314 316 318 319 319 319 319 319 319 319 320 323 324 326 330 333 336 336 329 324 323 323 325 328 329 333 335 334 336 337 337 337 337 339 342 343 345 348 347 347
304 304 303 303 303 304 304 304 304 304 304 304 304 304 304 304 304 304 304 304 304 305 305 305 306 306 307 307 307 307 307 307 308 309 309 309 309 310 310 310 311 311 310 312 317 318 317 314 314 318 320 321 321 322 322 322 322 322 323 325 327 327 333 341 339 334 328 323 322 325 324 324 331 336 336 337 335 337 346 347 344 348 348 346 349 351 350
303 303 303 303 304 304 304 304 304 304 303 303 304 304 304 304 304 304 304 304 304 304 305 305 306 306 306 306 307 307 307 308 308 308 308 309 309 310 310 310 311 311 311 314 318 319 318 316 316 319 322 322 323 324 324 323 324 325 324 325 326 326 331 340 339 333 330 325 322 322 321 325 338 342 338 337 335 338 348 345 341 349 352 345 346 351 353
303 303 303 304 304 304 304 304 304 304 304 303 303 304 304 304 304 304 304 304 304 305 305 305 305 306 306 306 307 307 308 308 308 308 309 309 308 310 310 310 311 311 311 314 317 317 317 316 318 320 321 321 322 324 325 324 324 326 326 327 328 328 333 337 333 330 332 329 326 324 324 335 348 344 337 336 335 337 340 335 338 352 353 343 345 350 352
303 303 303 303 303 303 304 303 303 303 303 304 304 304 304 304 304 304 304 304 304 305 305 305 306 307 307 306 307 307 308 308 308 308 309 309 309 310 310 310 311 312 312 313 315 315 315 316 316 318 319 320 320 323 325 325 325 326 327 328 329 330 334 334 329 329 332 331 328 326 331 343 350 343 337 337 336 338 337 336 346 354 347 343 346 347 346
303 303 303 303 303 303 303 303 303 303 303 303 304 304 304 304 304 304 304 304 304 305 305 305 306 306 307 307 306 307 307 308 308 307 308 309 310 309 309 310 311 312 313 313 314 313 314 315 315 315 317 319 321 323 325 325 325 325 326 329 331 332 335 336 330 328 330 334 335 332 333 340 344 341 338 337 338 341 340 343 348 347 343 345 346 343 344
303 303 303 303 303 303 303 303 303 303 304 303 304 304 304 304 304 304 304 304 304 304 305 305 306 306 306 306 307 307 307 308 308 308 308 309 310 308 309 311 312 312 313 314 314 313 313 315 315 315 316 320 323 325 326 326 324 323 326 331 333 334 338 339 334 330 333 341 344 341 337 338 336 338 344 347 348 347 345 344 345 344 344 346 345 344 346
303 303 303 303 303 303 303 303 303 303 304 304 304 304 304 304 304 304 304 304 304 304 305 305 305 306 306 307 307 307 307 308 308 308 308 309 309 308 309 311 311 311 313 314 314 315 315 316 318 318 318 322 325 327 327 326 325 325 329 333 334 335 338 339 336 334 336 339 340 338 337 339 336 339 348 350 348 345 342 342 342 343 344 344 345 346 345
303 303 303 303 303 303 303 303 303 303 303 303 303 303 303 303 304 304 304 304 304 304 304 304 305 304 305 305 305 305 306 307 307 308 308 307 308 308 309 309 309 310 313 313 314 315 314 315 317 319 320 322 324 325 326 325 326 327 330 333 334 333 334 335 335 336 338 339 337 336 336 338 338 339 342 342 342 341 341 342 341 341 342 343 346 348 346
303 303 303 303 303 303 303 303 303 303 303 303 303 303 303 303 304 304 304 304 304 304 305 305 305 305 305 306 306 306 307 307 307 307 307 307 308 308 308 308 309 311 312 312 313 315 314 314 316 318 319 321 323 324 325 326 327 327 328 330 330 330 330 333 334 336 338 338 337 336 336 335 337 337 337 339 341 341 340 339 337 336 338 340 342 346 347
302 302 302 302 303 303 303 303 303 303 303 303 303 303 303 303 303 304 304 304 304 305 305 305 306 307 307 307 307 307 307 308 308 308 308 308 308 308 308 309 309 311 312 311 311 312 313 313 315 317 319 321 322 323 325 327 327 326 327 328 329 328 329 332 334 334 337 339 339 338 337 335 335 336 337 339 339 338 336 335 333 333 335 336 337 341 343
302 302 302 302 302 303 303 303 303 303 303 303 303 303 303 303 304 304 304 304 305 305 305 305 306 306 306 307 308 307 307 308 308 308 308 308 308 308 308 309 309 309 311 311 310 311 313 314 315 316 318 320 320 321 323 325 325 325 326 328 329 329 330 332 333 333 335 339 338 336 335 334 333 334 337 337 336 335 334 332 331 332 332 333 333 335 336
302 302 302 302 302 302 302 302 303 303 303 303 303 303 303 303 304 304 304 304 305 305 305 305 305 306 307 307 307 307 307 308 308 307 307 308 308 308 308 308 308 309 309 310 310 312 314 316 316 316 317 319 320 321 322 323 324 326 326 327 327 328 330 332 332 332 334 337 337 335 336 336 333 331 333 333 333 332 331 330 330 331 330 330 330 331 331
302 302 302 302 302 302 302 302 302 302 302 303 302 302 302 303 303 304 305 305 305 305 305 306 306 306 306 306 307 307 307 307 308 308 307 307 308 309 308 309 309 308 308 309 309 310 314 316 316 316 316 318 320 322 323 324 324 326 327 327 327 328 331 332 332 333 335 337 335 335 338 338 335 332 331 331 331 330 330 329 329 329 328 327 326 327 328
302 302 302 302 302 302 302 302 302 302 302 302 302 302 302 303 304 305 305 305 305 305 305 305 305 306 306 306 307 307 308 308 308 307 307 307 308 309 309 309 309 309 308 309 310 312 315 316 315 315 316 316 319 322 324 324 325 326 327 327 327 328 329 330 330 331 333 333 333 333 335 336 333 331 331 330 330 329 329 328 327 327 326 325 324 323 323
302 303 302 302 302 301 301 302 302 302 301 301 301 302 303 305 305 305 305 305 305 305 305 305 305 306 306 307 307 307 307 308 308 308 307 307 307 308 308 308 308 309 309 309 310 313 315 316 314 315 315 316 318 322 325 325 326 327 327 327 326 326 327 328 329 330 331 331 332 332 333 333 331 330 329 329 329 328 327 326 325 324 324 324 323 322 321
303 303 303 303 302 302 301 302 302 301 301 301 302 303 305 305 305 305 305 305 305 305 305 305 305 305 306 307 307 308 308 309 309 308 308 308 307 308 308 308 308 308 309 310 311 312 315 316 315 315 316 315 318 322 325 325 326 327 326 326 326 326 326 326 327 328 330 331 332 331 331 331 330 329 328 328 328 328 328 327 324 323 323 324 323 322 322
303 303 303 303 303 302 302 302 302 302 301 302 302 304 306 306 306 305 305 305 304 304 304 305 305 306 306 307 308 309 309 309 309 309 309 309 308 308 308 308 308 309 309 311 311 313 315 316 315 316 316 316 319 322 323 324 325 327 326 325 325 325 325 325 325 326 329 331 331 330 329 328 328 328 327 327 327 327 328 328 326 324 323 322 322 323 323
304 304 304 304 304 303 303 302 302 302 302 302 303 303 304 305 305 305 304 304 303 303 304 305 306 306 307 307 308 309 310 310 311 311 310 310 309 309 308 307 308 309 310 312 313 315 316 315 315 316 316 316 318 322 323 323 325 326 325 325 325 324 324 324 324 326 329 331 331 330 328 327 326 326 326 326 326 326 326 326 326 325 324 323 322 322 322
305 305 304 304 304 304 304 303 303 303 303 303 304 304 304 305 305 305 305 304 304 304 305 306 306 307 307 308 308 310 311 312 312 311 311 311 310 309 308 308 308 309 310 312 313 315 315 314 315 317 317 317 318 321 323 324 325 325 324 324 324 324 323 323 324 325 328 330 330 329 327 325 323 324 324 324 324 323 323 323 324 324 324 324 322 320 320
306 306 305 305 305 306 306 306 306 305 305 305 305 306 307 307 307 307 306 305 305 306 306 306 306 307 307 308 309 310 312 313 313 312 313 312 311 311 311 310 309 309 312 313 313 314 314 314 315 317 318 319 319 321 323 324 324 323 323 323 323 323 323 323 323 324 326 329 328 327 325 325 323 323 323 322 321 320 320 320 321 322 323 324 323 321 320
306 306 305 306 307 308 308 307 307 307 307 306 307 307 307 307 307 307 306 306 306 307 307 307 307 307 308 309 310 311 311 313 313 313 313 314 314 313 314 314 312 313 315 315 314 315 316 315 316 318 319 320 320 322 324 324 323 322 323 323 322 323 323 323 323 323 325 327 328 326 326 327 326 325 325 323 321 320 319 318 318 318 321 323 324 321 318
306 306 306 307 308 309 309 309 309 308 308 308 307 307 307 307 306 306 306 306 307 307 307 308 308 308 308 309 310 311 311 313 314 312 312 314 315 313 313 315 317 316 315 315 316 317 317 315 315 318 321 321 321 322 323 322 322 322 322 322 322 323 322 322 322 322 322 324 325 325 325 325 325 325 325 324 323 323 323 322 320 317 317 319 320 318 315
307 308 308 309 309 310 310 310 309 309 309 309 309 308 307 307 307 307 307 307 308 307 307 308 308 308 308 309 310 310 311 314 314 313 312 314 315 313 313 315 317 316 315 316 317 317 316 315 316 319 321 321 321 321 321 320 320 321 321 321 322 322 322 322 322 322 322 322 322 323 323 324 324 324 324 325 324 324 325 325 324 322 321 320 320 318 318
309 309 310 310 310 311 311 311 310 310 310 310 309 308 308 308 308 308 308 308 308 308 307 307 307 307 308 309 310 310 312 313 314 314 314 314 314 314 313 314 315 316 315 316 316 315 314 316 318 319 320 320 320 319 319 320 320 321 321 321 321 321 322 322 322 322 322 322 322 321 321 322 323 323 324 324 325 325 325 326 326 325 325 324 324 323 323
309 310 310 310 311 311 311 311 311 310 310 310 309 309 309 309 309 308 308 308 308 309 308 308 308 309 309 310 310 310 311 313 314 315 315 314 313 314 314 314 315 315 315 315 315 315 315 316 318 319 320 320 320 319 319 320 320 320 321 321 321 321 322 321 321 321 322 322 322 321 320 320 321 322 322 323 324 324 324 325 325 325 325 325 325 325 324
309 310 310 310 311 311 311 311 311 310 311 311 310 310 310 310 309 309 309 309 308 309 309 309 309 309 309 311 312 311 312 313 315 316 316 315 314 315 316 315 315 315 315 314 315 315 316 316 317 318 319 320 320 319 319 320 320 320 321 322 322 321 321 322 322 322 322 322 322 322 322 321 321 322 322 323 324 325 325 324 324 325 325 325 325 325 324
310 310 310 310 310 310 310 311 311 311 312 312 312 311 311 311 310 311 312 311 311 311 310 310 312 312 312 312 313 312 312 313 314 315 316 317 315 316 316 316 315 316 316 315 315 317 318 317 316 318 319 319 319 319 320 320 320 321 321 322 322 321 322 322 322 322 322 322 322 322 322 322 322 323 324 324 325 325 325 325 325 326 326 326 325 325 325
311 310 310 309 309 309 310 311 312 312 312 312 311 311 311 311 312 314 313 313 313 314 313 312 314 315 315 314 314 313 313 313 314 315 317 318 317 318 318 316 315 316 317 316 317 319 319 317 316 318 320 319 318 319 320 320 320 321 321 321 321 321 321 322 322 322 323 323 323 323 323 323 323 323 324 324 324 324 324 325 326 326 326 326 326 326 325
312 311 309 309 309 310 309 310 311 311 310 310 310 311 312 312 314 316 315 314 314 315 315 315 315 316 316 315 315 315 315 315 316 317 319 319 319 318 317 315 315 316 317 317 318 319 318 317 318 320 320 318 318 320 321 320 320 321 321 321 321 321 321 322 322 323 323 323 323 323 323 323 323 323 324 324 324 324 324 325 325 326 326 326 326 326 326
313 312 310 309 309 309 309 310 309 309 310 310 310 312 314 314 314 315 316 315 315 316 316 316 316 317 318 317 316 317 317 317 317 318 319 320 320 319 316 315 317 318 318 317 317 317 317 318 320 320 319 319 320 321 321 321 321 321 321 321 321 321 321 322 322 322 322 322 322 322 322 322 323 323 324 324 324 324 325 325 325 325 325 326 326 326 326
314 313 311 310 309 309 311 311 309 309 311 312 312 312 315 315 315 315 315 315 315 316 317 316 317 318 319 318 318 318 319 318 318 319 320 321 321 319 317 317 319 320 319 318 317 316 317 319 321 320 319 321 321 321 321 322 321 321 321 321 321 321 322 322 322 322 322 322 322 322 322 323 323 323 323 324 324 324 324 324 324 324 324 325 325 325 325
315 314 312 311 310 310 311 312 312 312 314 315 315 315 316 316 316 316 316 315 315 317 317 317 318 319 318 319 320 320 319 319 319 320 321 322 321 319 318 319 320 320 319 318 318 318 319 320 321 320 320 321 321 321 321 322 321 321 321 321 321 322 322 322 322 322 322 322 322 322 322 322 322 322 322 322 323 323 323 323 324 324 324 324 324 324 325
315 314 312 312 312 312 313 314 315 314 315 315 315 316 317 317 317 317 317 316 317 318 318 318 319 319 319 319 320 320 319 320 321 321 322 322 321 320 320 320 320 319 319 319 319 319 320 321 320 320 321 321 320 320 321 321 321 322 321 321 321 322 322 322 322 322 322 321 321 321 321 321 321 321 321 321 321 322 322 322 322 322 322 322 322 323 323
316 314 313 313 313 314 315 316 315 315 315 315 315 316 318 318 318 318 318 318 319 320 320 319 320 321 320 320 321 321 321 321 321 321 321 321 321 321 321 320 319 319 319 320 320 320 320 320 320 320 320 320 320 320 321 321 320 320 320 321 321 321 321 321 322 322 322 321 321 320 320 320 319 319 319 319 320 320 320 320 320 320 320 320 320 321 321
314 314 313 314 314 315 316 316 316 316 317 316 316 317 318 318 318 318 318 319 320 321 321 320 319 320 320 320 320 321 322 321 321 321 321 321 321 322 321 320 319 319 319 320 320 320 320 320 321 321 320 319 319 320 320 320 320 319 319 319 319 319 320 320 320 320 320 320 319 319 318 318 318 318 318 318 318 319 319 319 319 319 319 318 318 318 319
312 312 313 314 315 315 315 315 317 318 318 317 317 318 319 319 319 319 319 320 320 320 321 320 319 319 319 319 319 320 320 320 320 320 321 321 322 322 321 320 319 319 319 319 319 320 320 320 320 321 321 321 321 321 320 319 319 319 319 319 319 319 319 319 319 319 319 319 318 318 318 318 318 318 317 317 317 317 317 317 317 318 318 318 318 317 317
311 312 313 314 315 315 314 315 316 318 319 318 317 318 319 319 319 318 319 320 320 319 319 320 318 317 318 319 319 320 319 319 319 319 320 320 321 321 320 319 319 319 320 320 320 320 320 320 319 320 320 321 321 320 320 319 319 320 319 318 318 319 319 318 318 318 318 318 318 318 318 318 318 317 317 317 316 316 317 316 316 317 317 317 318 318 317
312 314 314 314 314 314 315 315 316 317 317 317 317 317 318 318 317 316 318 319 319 318 318 319 318 318 319 320 320 319 318 318 318 318 318 319 319 320 320 319 319 319 319 319 320 319 319 319 319 319 320 320 319 319 319 319 319 320 319 318 318 318 318 318 318 317 317 317 317 317 317 317 317 316 316 316 316 316 316 316 316 316 316 316 317 318 318
Wind_Speed
27 27 27 27 27 26 25 24 23 23 23 23 21 20 17 12 17 28 25 18 21 15 6 6 7 7 12 17 19 19 16 13 14 17 18 15 13 13 13 12 13 12 11 13 14 12 11 12 13 12 10 9 10 15 19 18 17 15 10 10 14 11 6 6 6 6 9 11 9 17 20 17 12 11 11 10 9 8 6 5 3 4 6 5 5 6 7
27 27 27 27 26 25 25 23 22 21 20 19 19 17 15 16 24 31 23 17 15 10 4 5 6 7 12 15 17 20 18 15 15 14 14 13 11 10 11 13 14 13 12 14 15 13 11 11 13 13 10 9 12 15 22 21 15 11 9 8 11 10 7 6 5 4 7 9 7 10 17 15 9 8 11 13 14 12 9 7 3 4 8 8 5 5 6
27 27 27 26 26 25 24 23 21 20 18 16 16 15 15 16 18 21 21 21 16 10 8 9 7 9 14 15 15 17 15 14 15 14 13 14 11 9 10 14 15 13 12 13 15 15 12 12 13 12 11 11 14 15 13 17 16 12 15 17 14 10 8 8 8 8 9 9 7 5 9 11 8 8 12 16 18 16 11 6 5 6 8 10 8 6 5
28 27 27 26 26 25 23 23 21 19 17 16 15 14 13 11 9 10 16 20 16 12 13 13 8 8 10 9 11 12 10 13 19 19 14 13 14 12 10 14 16 13 14 15 12 13 13 12 10 10 11 10 9 21 28 19 17 19 20 21 14 6 7 11 13 12 9 8 7 4 4 8 12 13 15 15 16 18 12 6 7 6 4 6 9 9 8
28 28 27 27 26 25 24 23 21 19 17 15 14 14 11 7 5 6 9 11 11 12 15 13 8 9 10 6 7 14 13 12 16 16 11 11 15 12 8 11 13 13 17 15 12 14 16 14 13 12 13 14 15 25 26 16 21 31 22 19 13 5 7 14 17 17 13 9 7 8 9 9 13 17 18 15 15 16 14 11 11 7 4 6 8 7 10
29 28 28 27 26 25 24 23 21 20 17 14 13 12 9 7 9 12 11 8 7 9 13 15 13 14 14 8 7 14 14 11 12 12 11 12 12 8 7 9 12 14 16 12 11 16 14 10 13 16 15 16 17 22 19 11 20 29 18 11 9 4 6 11 16 18 19 15 12 12 13 12 12 16 18 17 17 17 15 14 13 9 6 9 8 5 7
29 29 28 27 26 24 23 22 21 19 18 16 13 11 10 10 12 15 14 9 10 13 17 19 17 14 13 8 8 13 14 13 12 9 9 10 8 6 9 11 12 14 15 10 8 11 11 10 12 14 16 16 13 13 15 12 17 20 15 11 5 3 5 8 12 14 18 19 18 17 16 14 12 13 16 18 19 20 18 14 11 11 10 10 10 10 9
30 29 28 27 26 24 23 21 19 19 18 16 15 14 13 12 12 12 11 10 13 17 18 16 12 11 11 8 7 10 13 14 13 10 9 10 7 6 10 13 13 12 12 11 9 10 11 13 14 14 14 14 10 7 8 10 16 18 13 11 10 7 5 6 6 7 11 17 20 20 19 17 14 12 13 17 19 20 19 16 12 10 9 9 10 10 10
29 29 27 27 25 23 22 21 19 18 17 16 17 17 16 16 15 14 10 8 10 12 12 11 8 7 8 8 7 9 11 14 15 12 11 11 11 8 8 11 11 10 10 10 12 14 15 14 17 18 16 14 13 10 8 10 16 16 12 10 12 10 4 5 4 2 5 10 17 21 20 17 17 18 16 16 16 14 13 14 14 12 10 8 7 7 8
29 28 27 27 25 23 21 20 18 17 16 17 17 18 18 17 16 14 9 6 8 9 8 9 9 7 5 6 9 10 11 14 15 11 9 11 14 13 10 8 7 7 8 10 13 18 21 21 23 25 23 22 22 21 19 17 15 12 12 11 10 10 6 4 5 3 3 4 7 13 15 14 16 18 16 11 9 11 11 11 13 16 13 8 6 7 7
28 27 27 26 24 22 20 19 18 16 16 16 17 19 20 17 16 16 9 5 7 9 7 7 7 7 8 10 12 12 13 15 14 9 7 10 14 15 12 10 7 6 8 13 17 19 23 27 28 27 26 26 25 26 25 22 17 14 12 10 8 11 9 4 5 4 3 4 5 6 8 11 11 10 11 11 8 9 10 8 9 12 11 10 9 7 5
28 27 26 24 22 21 19 18 17 16 16 16 16 18 18 16 16 15 8 4 7 8 7 8 10 11 14 16 14 12 14 15 15 13 12 14 18 18 14 9 8 8 13 19 21 16 19 25 24 21 21 21 21 23 22 19 18 16 13 11 11 10 8 4 3 4 3 4 4 6 7 8 6 5 9 11 10 8 8 9 9 7 6 10 11 8 7
28 26 24 22 21 20 18 16 15 15 16 15 16 18 17 15 15 14 9 5 6 7 7 10 16 18 18 17 14 14 18 18 17 16 13 13 18 20 15 11 12 16 21 23 17 11 12 14 14 12 13 13 13 17 19 17 18 17 14 13 11 8 6 5 2 4 4 3 4 6 4 4 5 3 4 3 3 4 4 5 6 5 4 1 1 1 1
26 24 22 21 21 19 16 15 14 13 14 14 15 17 16 15 15 15 10 5 5 9 10 10 13 16 16 14 12 12 16 16 14 14 13 13 16 18 17 16 16 20 24 18 6 4 5 6 7 7 7 8 9 11 12 12 13 16 16 13 9 7 5 3 2 2 5 5 4 4 3 4 6 5 1 2 2 1 2 1 3 5 7 7 5 6 7
22 21 21 20 19 17 14 13 13 13 13 13 14 16 16 16 16 15 13 9 6 9 11 9 9 12 13 14 13 10 10 10 8 10 13 14 14 15 17 19 18 21 23 12 2 3 2 3 4 4 3 4 5 6 7 7 7 10 13 11 8 7 4 1 1 1 2 4 4 4 4 5 5 2 2 3 3 4 7 4 2 5 6 8 7 7 8
19 19 20 18 16 14 13 12 13 13 13 13 13 15 15 15 15 14 15 13 7 5 8 9 13 18 15 15 16 11 6 5 6 7 7 9 13 16 18 19 17 19 21 10 3 3 1 2 3 4 3 3 4 5 6 6 6 8 10 9 8 9 4 1 1 1 1 2 5 5 5 4 3 2 1 4 7 6 6 5 4 5 4 8 10 9 9
18 18 18 17 15 13 12 13 13 12 13 12 13 15 15 14 14 13 14 14 10 12 19 21 20 20 13 9 11 9 5 6 9 6 4 6 11 14 17 20 17 16 17 9 1 3 1 2 3 3 3 3 4 5 6 6 5 7 11 13 11 7 3 2 1 1 2 2 3 3 2 2 1 1 1 7 10 8 4 1 3 4 5 10 12 11 10
17 17 17 16 15 14 13 13 13 13 13 12 12 15 15 14 14 12 13 15 11 12 21 22 17 16 11 8 11 12 8 8 8 6 6 7 7 9 15 17 13 11 12 7 3 2 2 2 3 4 3 3 3 3 5 5 4 5 8 9 8 6 4 2 3 3 2 3 1 2 1 1 2 3 5 5 8 7 3 5 5 2 7 14 17 14 13
17 16 16 16 15 14 14 14 13 13 12 11 12 15 15 13 13 12 14 16 13 14 21 20 16 19 18 16 18 18 14 10 5 3 6 5 5 13 19 14 7 6 6 3 3 3 3 4 3 3 3 3 2 2 4 4 3 5 7 6 5 6 5 3 3 5 2 3 2 2 2 1 0 4 10 10 5 3 3 3 4 7 11 17 20 18 17
17 17 16 16 15 14 13 13 12 11 11 10 11 15 15 13 13 14 14 15 16 22 27 23 18 21 21 18 18 17 14 11 5 2 4 6 9 16 13 4 4 7 3 2 3 3 3 3 3 4 4 3 1 2 3 4 5 4 3 3 3 3 4 3 3 4 2 2 3 2 1 3 1 2 6 6 2 4 3 2 10 14 16 17 20 20 19
18 17 16 15 15 14 13 12 11 10 11 10 11 15 17 13 12 13 14 14 14 18 21 18 16 20 21 20 21 20 18 16 12 8 10 12 12 9 4 3 7 6 1 1 3 2 2 2 1 2 2 1 1 1 2 4 4 2 2 1 1 2 2 2 3 4 3 2 1 1 4 11 7 3 2 1 2 2 4 8 11 14 17 18 21 22 21
18 17 16 15 14 13 13 13 12 11 12 11 11 15 17 15 13 13 15 15 17 20 24 25 26 28 27 26 26 25 24 24 22 20 19 16 13 11 11 11 11 5 1 1 2 2 2 3 2 2 3 2 1 0 1 1 3 2 2 1 1 3 2 3 2 2 1 3 4 5 14 25 15 9 15 10 10 13 16 17 16 17 19 21 22 22 22
17 17 16 15 15 14 13 13 13 13 12 12 12 14 16 16 14 14 15 17 20 24 28 29 27 26 25 23 20 19 19 22 24 24 23 18 14 14 16 15 10 3 3 4 1 1 2 3 3 3 2 2 2 1 1 1 2 3 3 1 1 2 2 5 3 3 2 4 4 5 15 29 25 4 19 18 17 18 22 24 23 22 25 26 25 25 25
18 17 16 16 15 15 14 14 14 13 13 13 13 13 15 16 14 14 15 15 15 17 19 19 19 18 18 19 18 16 17 20 21 21 22 20 16 12 12 14 10 3 3 4 1 2 1 3 4 3 2 2 2 1 1 1 0 2 3 3 0 2 2 3 2 4 4 3 4 8 12 27 28 8 14 22 25 24 26 28 27 26 29 30 28 28 28
19 18 17 17 16 16 15 15 14 15 14 13 13 13 15 15 13 13 13 12 12 11 9 12 19 20 17 18 19 17 16 16 16 17 18 21 22 20 17 14 10 6 4 3 1 1 1 2 3 4 3 2 1 1 0 1 1 2 2 2 1 4 7 6 3 3 3 2 3 8 14 23 24 22 16 18 26 29 27 28 29 29 30 30 29 29 29
19 18 18 17 16 16 16 15 15 15 14 14 13 13 14 14 13 13 13 13 15 13 7 10 19 20 15 17 21 20 18 18 18 18 18 19 23 25 23 20 16 13 10 6 3 4 4 2 2 4 3 2 1 0 1 1 1 1 1 1 4 6 7 5 3 4 4 3 2 7 12 15 20 28 22 15 22 29 29 28 30 31 32 31 31 31 31
19 19 18 18 17 17 16 16 16 15 15 15 14 13 15 15 13 13 15 13 11 9 5 7 16 22 24 26 26 21 18 19 19 21 22 22 22 23 22 21 18 15 14 10 7 7 5 3 2 5 4 3 2 1 2 2 1 1 2 2 3 4 3 2 2 3 2 1 3 5 4 6 10 18 20 16 18 26 30 30 30 30 30 31 32 32 31
21 20 19 18 17 17 17 16 15 15 15 15 15 15 16 15 13 13 16 15 11 10 10 13 21 27 27 25 21 16 15 16 17 19 21 21 20 22 22 19 16 14 13 11 7 4 3 2 3 4 4 3 2 1 2 2 1 2 2 1 3 3 3 2 2 3 5 7 9 6 1 2 8 15 17 15 16 23 28 29 30 29 28 29 31 32 31
22 21 20 19 17 16 16 16 15 15 15 15 16 16 15 14 12 10 11 11 10 11 14 17 19 18 17 19 22 22 20 18 16 18 19 18 18 20 21 19 16 14 14 12 8 3 2 3 4 6 7 5 3 2 1 1 0 1 1 1 3 4 5 6 5 5 9 13 13 6 2 4 7 13 17 16 16 22 25 25 27 29 28 28 29 30 29
24 22 22 21 19 16 15 14 14 14 14 15 15 14 12 10 6 2 2 4 7 11 13 11 10 13 19 25 26 22 19 17 16 17 18 18 18 19 19 18 18 16 14 12 8 5 2 2 3 8 12 10 5 1 1 0 1 1 1 2 4 5 8 11 10 7 12 16 11 7 9 9 9 12 16 16 16 19 22 22 24 25 24 24 26 27 26
23 22 22 21 20 18 16 15 14 14 14 14 11 8 7 5 2 3 7 9 12 15 14 11 12 16 20 21 18 15 17 18 15 14 14 16 18 18 17 16 14 15 14 12 9 6 3 2 2 6 9 10 5 1 1 0 1 2 1 3 5 6 10 13 11 10 13 11 9 15 13 10 9 11 15 16 14 17 20 20 20 22 22 21 22 22 21
23 22 21 21 20 19 17 16 15 15 16 16 13 12 11 10 9 11 12 11 13 15 12 9 9 9 8 11 15 17 18 16 11 9 9 12 14 14 15 14 13 13 13 9 5 3 1 3 6 8 7 6 5 2 0 2 2 1 2 4 5 6 10 12 12 10 9 5 11 13 10 7 8 10 13 14 13 14 17 18 18 21 22 22 22 21 18
22 21 20 19 17 17 16 15 15 16 16 17 16 13 12 10 9 8 7 7 10 13 10 6 5 3 5 12 18 17 14 11 6 3 5 8 10 10 13 15 14 12 10 7 5 2 2 3 7 6 3 4 5 2 1 2 2 1 2 4 5 6 8 11 10 7 2 2 5 9 10 11 12 12 13 14 12 11 14 17 18 19 22 23 22 21 20
20 19 18 15 14 14 14 13 14 14 15 15 13 10 8 9 9 9 9 7 8 9 9 6 4 4 7 11 11 10 10 9 6 4 2 5 7 7 7 9 10 9 7 4 4 4 3 4 4 3 2 3 4 2 1 1 2 3 3 4 6 5 5 8 11 10 8 8 10 15 19 20 18 15 14 14 13 12 14 17 18 19 21 21 20 20 20
17 16 15 14 14 15 14 12 12 12 12 12 11 9 8 10 11 13 13 11 8 7 6 5 5 3 5 6 4 6 10 9 6 5 4 4 6 6 3 2 3 4 3 1 2 2 2 2 3 2 1 3 3 2 2 2 4 4 5 7 8 7 5 5 9 12 14 14 15 17 19 19 19 16 14 14 15 15 16 17 17 18 20 20 19 18 19
14 13 14 14 15 16 13 11 9 10 9 10 11 11 12 13 15 16 16 14 12 9 6 4 4 4 3 3 3 6 9 8 6 5 4 2 5 6 5 4 2 1 1 0 1 2 2 2 2 2 2 2 1 0 3 6 7 7 7 8 7 7 6 6 8 13 17 19 19 20 18 17 17 15 14 14 14 14 15 16 16 17 18 19 18 18 18
12 14 15 16 15 14 12 10 9 10 11 12 14 16 16 16 15 13 12 13 14 13 10 6 4 5 6 4 4 5 6 4 2 3 1 1 2 3 4 3 1 1 1 1 1 1 2 2 2 2 2 1 3 6 9 10 9 8 8 7 7 8 7 5 6 10 14 19 23 23 21 19 18 16 14 14 13 12 13 13 14 16 18 18 18 18 18
13 14 16 16 14 10 8 9 11 13 15 14 14 14 12 10 7 6 6 7 8 10 10 7 6 8 7 5 6 8 6 2 2 3 1 4 2 0 2 1 2 3 1 1 1 1 1 2 1 2 2 3 7 11 12 11 10 9 8 8 10 11 11 9 8 10 12 14 17 20 21 21 20 17 15 13 12 12 12 12 12 14 16 16 16 17 17
14 15 16 14 12 9 10 14 17 17 16 14 10 7 5 4 3 2 4 4 4 5 7 7 7 10 8 5 8 11 8 3 2 2 2 5 4 2 2 2 3 3 1 1 1 2 1 1 1 1 2 3 6 8 9 8 8 8 8 10 11 12 13 14 14 14 14 14 14 16 18 19 17 15 15 16 17 16 16 15 14 14 14 13 14 15 16
18 16 14 12 13 13 14 17 18 16 12 8 6 5 3 3 3 2 2 3 3 4 6 6 7 11 13 11 8 7 6 5 4 2 1 4 5 3 3 3 2 3 2 1 2 3 2 0 0 1 2 2 4 5 7 8 10 9 10 11 11 11 12 14 14 15 15 15 16 16 16 15 15 14 15 16 18 18 17 16 15 14 14 14 13 13 14
22 19 16 16 17 17 17 15 12 9 7 5 4 3 2 3 4 4 3 2 2 3 6 6 4 6 11 13 11 8 8 9 8 4 2 3 5 4 2 2 2 1 1 1 2 2 1 1 2 2 2 3 4 6 8 10 11 11 11 12 12 12 13 13 13 14 15 16 16 16 15 14 15 17 16 16 16 16 16 16 16 15 15 15 14 13 12
20 20 21 21 20 18 16 12 7 4 4 3 2 2 2 2 3 2 2 2 2 2 4 6 4 3 5 8 9 8 8 8 7 5 2 2 4 4 2 1 1 1 1 2 3 2 0 2 3 3 2 3 5 7 9 11 12 12 13 13 13 13 13 14 14 15 16 17 16 16 16 16 17 18 18 17 17 17 18 17 17 17 17 16 15 15 14
18 19 21 19 16 13 10 7 4 3 2 1 2 2 2 1 1 1 1 3 3 3 2 3 4 4 5 5 6 7 7 6 5 4 3 1 2 2 2 2 2 1 2 2 0 1 2 3 3 2 2 4 7 8 8 10 12 12 13 13 13 13 14 14 15 15 17 18 18 18 18 18 18 18 17 17 17 18 18 18 17 17 17 16 16 15 15
17 17 16 12 9 9 7 4 4 4 2 1 2 3 3 3 3 3 3 4 4 6 8 10 9 6 3 2 2 3 3 3 4 3 2 1 1 1 2 2 1 1 2 1 2 3 3 3 3 3 5 8 9 9 8 8 9 10 12 12 12 13 14 15 16 16 17 18 18 18 19 19 19 19 19 19 18 18 18 18 18 19 18 18 17 15 14
15 13 11 7 6 7 6 4 3 4 2 1 2 2 3 5 5 5 6 8 9 11 16 17 13 8 3 1 1 1 2 2 2 1 1 0 1 2 2 1 1 1 1 2 3 3 3 3 4 5 8 9 9 8 9 9 10 12 14 15 15 16 17 18 18 18 19 19 19 19 20 21 21 21 21 21 20 19 19 19 19 20 21 20 20 19 17
13 10 6 2 3 6 4 2 2 3 1 3 5 5 5 6 7 9 12 13 13 14 17 17 12 7 4 2 1 0 1 1 1 1 1 1 1 2 1 1 1 1 3 3 4 4 3 3 5 6 7 7 7 8 10 11 13 16 18 18 17 18 19 19 19 20 20 20 20 21 21 21 21 21 22 22 21 21 21 19 19 19 20 21 20 20 19
11 9 5 1 1 4 2 1 4 6 6 9 16 18 16 13 12 12 12 12 13 15 16 15 10 6 4 3 2 2 1 2 1 1 2 1 1 1 0 1 2 3 3 4 5 4 3 4 8 9 6 4 6 10 13 14 16 18 18 18 18 19 19 19 19 19 19 20 21 21 21 21 21 21 21 21 21 21 21 20 20 19 19 19 19 19 18
10 8 5 2 1 1 1 2 7 10 12 17 22 21 17 16 16 16 15 11 11 13 14 11 7 3 2 2 2 1 1 1 1 1 1 1 0 1 2 3 3 3 3 4 5 4 4 8 13 14 9 6 8 11 11 11 14 16 16 17 17 18 18 19 19 18 18 18 19 18 18 19 20 21 20 20 20 20 19 19 20 20 20 19 19 19 18
10 8 4 2 1 3 3 3 2 8 17 24 25 22 20 17 17 20 22 19 13 12 12 10 6 3 2 2 2 1 2 2 2 2 2 2 2 2 2 4 4 4 3 3 3 6 10 14 16 16 13 10 10 10 11 13 16 18 18 18 18 18 18 18 18 17 17 18 18 18 18 18 18 19 20 19 18 18 17 17 18 18 18 19 19 19 18
6 6 5 5 4 6 10 9 5 7 14 20 23 26 25 20 17 20 24 23 18 14 10 7 4 3 3 3 2 2 3 3 3 2 3 4 3 2 3 5 5 3 3 3 5 10 15 18 19 19 17 14 12 13 17 19 21 21 20 19 19 19 18 18 17 17 16 16 16 17 17 17 16 17 19 19 17 16 15 15 16 16 16 16 17 18 19
5 6 8 11 12 12 12 10 6 4 8 14 21 25 26 24 24 25 25 23 21 16 9 5 4 3 3 3 3 3 3 4 4 3 4 5 4 3 5 6 5 4 6 10 13 15 17 19 20 21 21 19 17 18 19 20 20 20 19 19 20 19 18 18 18 17 17 17 16 16 17 18 18 18 18 18 17 17 17 18 17 17 16 17 16 15 16
6 7 10 14 18 19 17 14 11 9 11 17 24 26 25 26 29 30 26 23 20 16 11 9 6 3 2 3 4 3 3 4 4 5 5 4 3 4 6 8 9 10 13 15 17 18 19 20 20 21 21 21 20 20 19 18 19 19 18 18 20 20 20 19 18 18 19 19 19 17 18 19 20 20 19 19 18 18 19 20 19 18 18 20 19 16 15
Wind_Direction
323 323 323 323 325 325 324 324 324 326 330 330 333 334 321 301 286 289 299 325 327 315 288 266 263 251 256 259 261 265 269 271 274 276 276 276 275 273 274 272 274 279 277 280 283 278 278 280 280 286 273 237 218 212 207 201 195 198 211 200 186 190 208 214 229 259 274 269 222 184 181 188 200 204 203 213 222 217 222 226 195 195 213 195 195 237 244
322 321 320 320 321 321 321 322 323 326 329 328 328 323 311 302 294 293 310 335 315 285 259 272 264 261 267 267 269 271 270 273 275 275 277 279 278 272 274 277 273 271 275 277 275 276 276 275 279 284 287 298 292 250 219 215 212 194 198 195 175 182 199 191 197 230 251 265 251 195 184 187 201 203 195 204 214 217 228 234 207 204 216 198 188 233 235
321 319 318 319 318 317 318 319 320 323 325 324 322 314 308 308 296 289 308 322 303 265 252 263 261 271 275 273 276 273 269 279 292 303 303 298 304 302 296 311 308 288 291 298 286 278 273 272 277 279 281 290 303 306 278 246 237 219 201 188 177 187 192 181 196 208 213 227 234 202 183 184 197 205 196 198 206 212 221 225 214 223 225 211 206 234 249
322 319 318 317 315 314 314 314 314 317 320 320 317 310 305 306 298 293 309 317 312 298 290 286 278 284 290 290 296 301 306 310 315 320 312 306 322 325 319 340 344 336 346 345 317 306 309 302 295 292 296 292 304 335 338 321 297 284 243 203 185 195 189 187 202 205 206 223 232 237 205 187 191 201 203 201 202 208 211 216 224 215 206 223 223 225 244
323 320 317 315 313 312 310 308 308 309 311 313 313 306 296 287 283 295 314 322 318 315 316 319 324 322 319 317 307 308 310 312 311 309 303 316 333 334 331 351 359 357 354 344 320 329 340 340 344 339 326 328 333 335 335 332 331 323 287 218 194 206 198 192 200 206 210 221 237 243 242 221 196 191 200 207 207 209 208 214 226 211 176 245 246 217 226
322 320 318 316 312 311 309 305 303 303 303 304 307 300 287 276 279 290 303 310 301 307 316 319 320 315 310 306 299 297 295 296 301 303 306 318 330 331 317 337 357 354 348 340 324 334 342 344 352 352 340 337 338 333 328 338 353 345 317 237 197 176 197 195 194 204 213 221 236 239 240 245 221 191 193 202 208 217 219 218 220 209 206 241 239 201 211
322 320 318 316 312 310 307 303 299 297 297 296 294 285 275 276 281 288 294 294 291 299 303 303 305 304 305 309 301 291 286 284 286 293 301 303 314 311 290 307 342 347 341 342 332 332 336 335 341 344 333 330 333 326 321 339 1 354 330 296 264 186 184 194 195 202 208 215 231 242 243 249 241 208 194 196 204 215 223 230 226 213 219 234 228 219 224
321 320 318 315 311 307 304 302 298 294 293 291 285 274 267 267 274 292 305 299 293 295 297 298 300 299 299 296 289 296 301 298 291 287 289 294 297 292 290 306 327 339 339 336 323 316 323 323 324 326 323 323 329 322 315 333 339 333 326 317 297 261 201 178 191 202 203 206 217 233 244 251 257 244 212 200 204 208 212 224 233 231 232 231 224 230 237
320 319 317 315 311 306 302 300 297 293 289 285 280 275 271 269 275 293 309 300 292 297 300 298 293 290 294 295 306 321 316 306 302 295 291 298 302 305 309 310 316 326 324 315 311 314 316 312 309 310 307 300 296 292 294 313 318 314 311 314 306 289 231 153 134 166 217 213 209 216 231 248 260 258 239 214 205 206 207 209 214 223 233 233 224 226 240
318 317 317 315 310 306 302 298 295 291 283 278 277 276 279 282 286 297 306 289 286 295 290 284 282 282 286 293 305 311 304 304 309 306 298 303 308 315 319 306 302 313 303 297 304 309 308 305 300 295 291 288 283 278 279 285 287 291 297 299 299 295 274 179 142 158 221 245 228 216 216 230 244 247 247 237 212 208 215 207 202 209 215 229 236 220 222
317 315 314 312 309 305 300 294 292 287 277 271 271 274 280 286 292 300 302 278 281 289 283 281 284 283 288 292 295 301 303 306 312 314 306 304 301 300 301 300 292 271 262 274 284 290 297 301 299 291 286 286 284 281 282 282 274 270 280 283 283 293 289 231 155 147 182 213 257 257 226 224 232 229 233 248 244 226 228 228 216 208 206 216 221 212 218
314 313 312 312 311 307 300 293 288 283 275 269 268 273 278 283 289 294 290 275 291 293 285 282 285 292 297 295 294 301 303 305 312 309 303 304 297 284 274 275 276 273 272 271 274 293 311 307 303 299 293 289 286 285 285 285 280 274 272 272 278 292 299 273 177 140 140 168 213 246 240 239 246 204 205 231 246 247 253 260 254 246 236 227 216 207 225
312 314 316 315 313 309 302 295 289 283 279 274 269 271 275 279 281 279 273 277 282 278 283 291 290 292 295 295 303 310 304 304 310 307 307 315 305 291 281 267 257 266 270 264 271 315 329 309 305 307 302 301 297 288 285 284 284 283 279 273 272 279 293 293 241 154 146 145 195 223 246 305 296 227 183 209 257 262 277 281 283 319 1 289 216 16 311
314 316 317 315 312 309 303 296 291 286 282 277 272 274 277 277 273 271 273 275 266 276 290 295 290 291 296 303 315 316 309 310 313 310 315 318 303 296 298 294 289 286 275 259 261 349 318 298 316 318 317 319 303 290 292 288 278 278 280 277 277 284 289 305 339 163 168 172 212 251 293 307 275 251 151 52 17 68 116 206 300 8 52 71 63 35 29
316 316 316 316 314 310 305 299 295 292 286 280 275 275 276 277 277 277 276 272 274 287 277 260 276 299 310 313 310 305 307 315 318 313 314 313 305 304 305 305 313 315 300 278 137 83 279 284 307 300 312 318 296 294 308 305 287 279 276 269 266 276 288 12 16 317 164 166 200 250 256 239 234 258 12 23 36 81 109 114 353 5 50 71 77 62 49
320 318 317 318 315 311 308 303 299 296 291 285 280 277 277 280 282 281 275 269 267 277 262 262 289 301 304 303 301 305 315 315 316 313 309 318 319 314 311 313 318 319 313 308 118 112 282 258 265 277 287 303 312 309 302 311 329 317 308 307 289 273 277 3 320 299 48 168 198 217 236 226 181 169 135 60 58 61 79 71 352 327 18 58 75 71 53
326 323 322 322 319 315 310 305 302 301 296 290 284 280 281 283 281 280 276 267 254 260 271 279 288 291 294 299 300 309 320 307 312 315 294 313 317 312 320 327 324 321 324 324 166 145 177 232 258 271 259 274 311 309 303 320 336 330 337 343 331 312 325 19 313 255 103 120 215 224 229 246 244 229 150 102 91 76 69 101 265 291 7 52 68 70 57
333 329 328 327 325 321 315 309 306 303 298 294 286 280 282 286 287 289 283 269 254 262 273 278 281 283 284 289 291 296 301 301 314 321 296 298 312 318 323 322 317 329 339 327 253 200 160 196 254 266 253 264 289 296 304 314 320 341 353 352 340 337 359 24 321 308 68 87 261 242 162 249 300 347 2 55 92 91 119 199 218 301 30 55 63 63 56
338 334 332 331 328 323 319 314 311 306 298 294 288 284 286 290 292 294 285 268 255 263 274 279 283 283 281 283 284 286 287 285 290 322 301 291 323 327 317 306 308 341 340 303 262 251 212 189 224 261 255 253 276 298 295 293 311 354 0 359 356 347 346 360 334 313 353 60 14 336 350 306 87 41 14 14 60 120 193 183 110 62 54 59 62 61 57
337 335 332 331 328 326 323 319 317 313 304 299 295 289 291 296 294 289 283 272 264 272 280 283 282 279 278 279 280 283 287 283 263 217 264 277 313 326 321 309 351 353 325 267 294 277 235 201 197 225 236 225 238 298 292 290 296 312 349 15 15 338 322 339 338 310 318 41 46 68 333 299 266 78 20 18 122 215 258 78 73 64 61 60 58 58 57
336 334 332 331 329 328 327 322 320 319 309 304 301 294 293 300 300 289 287 285 276 275 282 289 287 281 277 274 273 276 278 276 267 262 275 284 298 313 311 288 309 317 331 4 325 301 290 287 226 237 266 240 168 264 308 316 302 279 125 115 19 4 337 333 352 349 357 13 21 75 323 312 308 150 141 9 112 78 59 86 78 58 57 61 59 55 52
338 337 335 335 332 330 329 324 320 318 310 306 303 297 295 299 299 293 294 293 280 272 278 287 289 286 280 274 272 271 268 266 264 264 273 284 284 270 271 288 293 281 151 75 318 312 331 318 301 309 297 266 214 213 57 350 313 6 76 144 102 50 358 261 262 339 312 252 272 317 324 318 323 96 103 80 69 73 77 85 77 58 58 64 64 60 57
340 339 337 336 333 330 328 324 320 316 311 307 303 297 295 298 299 297 298 297 289 284 288 292 291 289 288 285 283 282 275 265 259 257 259 265 268 265 268 277 281 273 114 112 115 350 339 314 304 302 287 274 268 236 150 187 283 345 12 291 167 91 262 245 251 335 322 256 274 349 338 318 313 68 103 89 78 81 83 83 75 68 71 72 70 68 66
338 338 335 334 333 330 328 324 321 317 313 309 306 299 295 297 299 298 298 296 294 295 299 295 283 279 286 290 290 291 283 266 256 256 253 248 250 261 267 266 268 257 139 133 84 13 339 304 296 276 272 296 284 243 195 162 293 356 347 308 184 72 346 287 297 352 346 311 345 13 336 311 311 334 102 98 90 87 86 85 81 77 77 76 74 76 74
337 336 333 331 330 328 327 325 321 317 314 311 307 300 295 295 296 295 294 294 293 296 302 294 286 285 292 296 291 289 286 275 263 258 253 244 241 246 251 257 272 281 237 200 79 42 200 279 292 281 290 308 297 277 315 83 49 9 350 329 325 344 343 341 343 341 312 272 358 351 309 311 343 21 53 86 95 92 85 84 85 82 79 77 75 78 79
336 335 333 331 328 326 325 324 322 319 316 311 306 299 294 293 294 290 289 292 290 282 265 273 289 299 309 302 292 287 284 281 271 262 257 249 242 241 246 253 265 275 269 245 226 231 219 206 276 281 287 299 302 329 266 253 304 315 281 283 283 289 309 325 313 311 303 263 345 349 313 318 8 30 28 43 84 93 90 87 85 81 79 77 76 76 77
336 335 333 331 330 327 323 322 322 320 317 313 310 305 298 295 294 289 287 289 287 278 262 273 292 303 307 302 299 296 286 278 270 262 259 254 242 236 240 244 248 259 269 266 258 250 233 207 257 274 279 287 278 239 228 239 260 256 252 292 309 288 300 344 329 320 343 343 337 356 336 310 359 23 22 26 64 87 91 88 84 82 80 80 78 77 77
337 336 334 331 330 328 324 323 321 319 318 316 313 310 307 304 301 291 283 277 267 263 274 287 293 299 303 305 308 309 294 281 273 262 256 252 241 232 233 238 239 244 250 248 244 248 242 236 274 291 299 302 286 246 225 220 218 239 247 348 7 325 306 338 341 299 286 286 293 304 318 319 355 22 33 36 56 77 84 85 85 85 84 83 81 78 75
335 334 332 329 327 326 326 324 322 320 320 318 316 317 317 313 309 298 281 273 271 277 286 291 292 293 298 303 305 302 293 283 272 258 248 244 240 234 231 230 229 232 240 242 240 247 244 224 245 268 268 263 266 287 274 195 238 268 244 38 349 319 309 319 325 298 282 282 278 263 149 81 43 47 52 51 59 72 78 81 84 85 84 83 82 78 74
328 328 328 325 322 321 321 322 322 320 319 319 319 320 317 311 315 347 315 292 310 315 308 299 294 294 296 297 298 299 298 289 272 255 243 237 238 239 234 225 218 222 235 242 237 239 250 234 262 265 251 234 223 278 315 73 310 255 167 19 341 330 331 333 335 319 296 287 261 190 136 106 90 77 67 61 63 73 78 80 84 87 85 82 79 76 73
322 322 322 319 316 313 312 314 316 313 312 313 311 302 292 283 278 325 319 312 315 315 306 288 285 292 296 297 298 305 312 303 278 254 244 240 238 236 234 229 219 216 225 232 236 245 242 177 244 274 251 228 226 289 354 202 270 260 339 4 348 343 344 342 337 319 297 274 189 147 128 114 105 86 73 67 66 72 78 80 82 86 88 86 82 79 76
323 320 318 316 312 309 309 311 311 308 306 303 292 275 270 277 287 299 304 301 298 296 289 282 287 289 294 307 311 315 317 309 283 254 249 250 244 231 224 228 230 224 221 217 220 252 255 194 233 259 255 232 241 285 248 215 242 270 341 344 342 353 1 359 349 329 299 226 149 126 109 105 104 87 79 79 75 74 81 85 84 86 88 88 88 86 84
327 323 320 317 313 311 312 313 311 307 304 301 294 284 280 287 296 298 294 287 283 280 271 270 290 283 281 302 311 320 329 329 317 283 254 256 255 237 217 216 220 223 223 209 185 204 292 265 253 263 255 218 226 245 261 236 222 145 17 346 341 357 16 15 8 359 319 193 140 119 115 112 105 98 96 95 91 90 94 96 93 90 88 86 85 85 85
327 323 322 320 319 321 322 317 311 306 302 300 299 294 288 290 293 292 290 286 277 268 259 252 261 283 291 294 303 321 336 346 2 7 320 284 284 273 234 206 197 201 211 203 174 188 239 261 276 304 300 220 216 224 254 226 144 107 64 27 14 11 16 11 12 36 82 116 123 117 112 105 97 96 96 93 94 101 104 99 95 91 89 86 83 82 83
327 323 323 324 325 326 323 317 309 303 301 302 305 304 293 287 287 289 290 284 266 251 251 242 231 263 300 296 294 321 332 342 353 343 329 342 351 353 16 121 171 194 202 172 154 205 252 299 328 323 254 199 205 227 218 155 120 97 70 49 35 30 33 14 14 43 83 117 132 125 114 105 104 106 102 92 91 95 93 89 88 88 87 85 82 81 83
339 331 328 328 328 325 322 318 306 297 301 312 315 312 301 291 289 289 284 274 260 249 252 260 242 244 285 300 295 309 321 334 337 313 298 342 5 13 46 72 43 337 339 15 209 240 299 349 339 300 253 212 218 100 99 107 104 87 69 57 44 44 57 58 50 63 81 96 105 106 103 99 101 105 104 95 90 89 85 82 80 82 85 85 81 77 78
352 343 335 334 332 325 320 318 309 305 315 319 310 302 296 289 290 289 277 264 256 247 242 253 263 254 263 277 281 294 312 327 313 295 271 111 13 13 53 69 34 303 301 279 207 226 338 346 307 280 284 106 92 78 79 85 85 74 65 60 59 67 75 77 77 83 85 84 85 90 92 88 83 84 89 92 91 90 89 86 83 81 82 83 81 77 77
349 344 341 339 336 326 315 312 309 313 320 317 301 292 288 280 278 277 256 251 256 243 228 230 251 254 253 255 259 273 296 323 281 269 185 157 180 24 71 112 208 219 252 311 220 185 352 344 271 266 324 51 73 73 73 75 71 67 69 70 70 77 85 85 81 84 83 78 78 84 87 83 75 70 74 82 85 86 86 87 86 81 75 72 72 72 73
353 347 343 334 320 308 304 302 301 305 311 307 290 277 267 243 242 260 234 226 244 235 218 225 245 241 230 235 265 274 276 262 249 265 183 171 185 180 140 172 210 202 189 299 203 158 118 348 292 307 11 40 56 57 58 59 58 63 75 78 75 80 88 88 84 81 78 76 79 87 95 96 90 81 77 76 75 74 75 76 76 72 65 62 63 62 64
358 351 343 324 311 314 317 308 299 296 299 294 270 254 244 216 205 215 216 218 237 230 218 230 249 240 231 232 253 273 266 240 241 273 210 181 191 192 164 157 177 186 191 221 202 173 159 202 358 73 49 20 17 27 39 50 57 67 80 83 78 77 82 88 91 89 84 81 80 85 94 102 104 99 90 79 71 67 68 69 71 69 65 62 62 61 63
352 346 338 326 324 332 336 330 316 296 282 272 252 244 244 219 212 221 229 240 250 222 217 228 248 242 231 227 225 241 264 259 248 249 255 200 192 194 173 144 164 203 203 156 174 194 200 80 78 68 28 13 33 54 67 68 65 67 77 86 86 83 84 89 92 91 89 88 84 81 83 87 89 92 93 87 75 67 65 68 71 69 64 60 59 60 63
345 341 335 330 332 339 342 342 336 298 267 268 272 260 251 245 244 235 221 240 274 252 222 229 251 282 267 243 226 232 254 256 235 221 231 201 181 179 161 105 99 80 98 162 187 207 88 68 68 59 39 48 63 72 76 76 75 76 80 86 90 89 88 88 88 89 91 91 89 88 88 86 83 84 86 82 73 66 64 66 68 66 64 64 64 62 61
342 340 337 334 334 338 339 340 342 325 294 289 307 300 287 292 297 276 250 266 282 292 284 279 293 305 303 279 250 240 243 246 235 223 219 192 156 141 101 56 56 94 159 202 227 50 56 59 65 56 21 36 58 71 73 75 80 81 79 80 86 91 92 91 89 90 92 92 90 90 88 84 80 81 81 78 73 68 65 64 65 64 64 67 70 69 67
341 336 335 332 325 327 337 355 2 350 334 301 323 323 319 315 306 302 316 323 318 319 324 324 318 308 288 251 258 265 256 248 248 244 231 210 148 112 90 59 54 115 152 140 52 47 47 48 59 53 32 37 56 72 74 70 76 80 77 77 84 89 88 86 85 85 86 87 87 86 84 81 79 78 76 74 71 68 66 66 66 66 65 68 71 72 72
338 327 326 331 336 345 356 6 357 350 334 286 297 301 300 311 309 298 302 307 304 304 310 314 312 305 291 183 180 262 267 243 241 263 295 315 69 66 72 106 154 116 73 61 51 46 47 45 38 35 34 41 57 76 78 74 78 81 81 83 87 87 84 83 82 80 79 81 82 82 81 80 78 76 74 72 71 70 69 68 67 67 67 68 68 70 73
331 320 318 324 349 356 3 2 341 345 300 289 307 301 286 294 301 295 294 295 291 291 300 307 309 315 338 24 63 341 315 318 322 327 331 4 55 43 33 176 149 59 46 55 57 52 51 49 43 43 43 41 51 74 86 88 86 83 80 79 80 82 82 81 80 78 78 81 84 83 82 81 79 76 73 73 72 71 70 70 71 72 71 68 66 65 67
321 312 306 279 347 356 16 357 309 292 276 297 312 315 315 319 323 318 311 303 295 295 302 306 304 301 319 346 1 18 28 16 5 345 340 3 80 125 298 52 53 39 38 52 57 58 48 31 37 45 49 44 62 81 89 89 84 82 80 77 75 76 79 80 80 80 81 82 83 81 80 80 81 80 77 75 73 72 71 71 73 74 73 71 71 71 68
310 303 318 17 350 291 240 253 281 297 318 327 326 329 344 0 2 358 355 343 316 307 312 316 311 302 320 347 353 350 319 335 20 21 351 351 65 55 32 45 48 36 33 46 53 53 39 32 35 40 47 65 85 90 88 82 79 81 84 85 81 78 78 79 79 79 81 82 82 80 78 79 80 81 79 77 75 73 71 69 68 68 67 67 68 70 70
293 287 314 6 263 288 350 14 320 334 348 348 344 348 2 14 14 10 8 4 347 323 314 313 315 330 350 352 352 351 351 360 11 4 355 14 36 32 39 56 54 37 30 38 36 34 39 43 46 49 56 71 81 74 65 68 76 78 79 81 81 80 81 82 81 80 80 82 82 82 81 81 81 78 74 73 72 72 72 70 67 65 64 60 59 61 65
299 296 332 4 356 346 359 12 16 359 354 354 355 356 355 355 3 10 9 7 3 353 337 328 342 1 356 353 360 8 8 11 15 15 16 24 26 25 46 61 61 48 44 49 42 42 47 51 54 56 60 64 64 58 61 71 77 76 74 76 78 77 78 80 80 79 77 75 75 76 75 74 74 72 69 67 66 64 63 61 59 59 58 55 55 58 61
344 342 358 14 18 12 9 13 21 9 350 350 354 355 352 352 1 7 7 9 14 17 14 12 12 4 359 9 15 12 3 2 7 26 33 24 14 32 60 65 59 49 48 46 45 49 56 59 61 63 67 67 65 65 70 74 73 71 73 78 79 78 77 77 76 74 71 69 70 72 70 68 68 69 67 64 60 57 53 50 51 54 53 47 44 47 53
343 357 7 15 17 18 19 21 22 23 14 6 4 6 8 9 11 14 17 23 27 26 22 18 18 25 38 22 7 7 18 17 15 28 36 27 16 42 59 57 52 55 61 60 57 59 64 67 68 71 74 75 74 74 77 77 73 72 77 80 79 78 79 77 74 72 70 70 71 70 66 64 66 68 66 60 55 52 48 44 43 47 49 46 45 50 60